Regional Weather Roundup
Issued by NWS

Home | Current Version | Previous Version | Graphics & Text | Print | Product List | Glossary On
Versions: 1 2 3 4 5 6 7 8 9 10 11 12 13 14 15 16 17 18 19 20 21 22 23 24 25 26 27 28 29 30 31 32 33 34 35 36 37 38 39 40 41 42 43 44 45 46 47 48 49 50
000
ASUS45 KSLC 190510
RWRUT

UTAH REGIONAL WEATHER ROUNDUP
NATIONAL WEATHER SERVICE SALT LAKE CITY UT
1000 PM MST SUN FEB 18 2018

UTZ001>011-023>025-190600-

NORTHERN UTAH

CITY           SKY/WX    TMP DP  RH WIND       PRES   REMARKS
BRIGHAM CITY   CLOUDY    30  27  88 W7        29.58R WCI  23
HILL AFB       FLURRIES  28  28 100 N7        29.54R WCI  21
LOGAN          LGT SNOW  30  27  88 CALM      29.57R FOG
OGDEN          LGT SNOW  30  27  88 NW7       29.55R FOG     WCI  23
SALT LAKE CITY LGT SNOW  33  30  88 N8        29.53F FOG     WCI  26
TOOELE VALLEY  LGT SNOW  32  32 100 CALM      29.55F
WENDOVER       FLURRIES  29  23  78 N12       29.56F WCI  19
HEBER CITY     LGT SNOW  30  27  86 E5        29.46S VSB 1   WCI  25
WEST JORDAN    CLOUDY    29  29 100 N8        29.54F WCI  21

$$

UTZ011>015-024>027-190600-

CENTRAL/NORTHEAST UTAH

CITY           SKY/WX    TMP DP  RH WIND       PRES   REMARKS
PROVO AIRPORT  CLOUDY    32  30  92 NW22      29.52S WCI  19
MOAB/CANYONLAN CLEAR     51  23  33 SW13      29.42F
DELTA          PTCLDY    32  30  93 N16G23    29.47F WCI  21
PRICE          PTCLDY    43  18  36 S18G25    29.39F
RICHFIELD      CLEAR     43  19  39 S20G31    29.41F
ROOSEVELT      MOCLDY    36  14  41 W7        29.39R WCI  30
VERNAL         MOCLDY    41  19  41 S5        29.36F

$$

UTZ013>016-019>022-027-190600-

SOUTHERN UTAH

CITY           SKY/WX    TMP DP  RH WIND       PRES   REMARKS
BRYCE CANYON   PTCLDY    36  21  54 S18G36    29.55F WCI  26
CEDAR CITY     PTCLDY    45  23  42 S28G43    29.46F
MILFORD        CLEAR     37  20  50 S16       29.42F WCI  28
ST GEORGE      CLOUDY    56  29  35 S9        29.52F
HANKSVILLE     CLEAR     54  21  28 SW26G40   29.47F
KANAB          CLOUDY    48  28  46 S12G20    29.63F
BLANDING         N/A     44  24  46 S16       29.66F

$$

REGIONAL REPORTS     COLORADO/ARIZONA

CITY           SKY/WX    TMP DP  RH WIND       PRES   REMARKS
CRAIG, CO      PTCLDY    44  20  38 SW9       29.41R
GRAND JUNCTION PTCLDY    53  21  28 SW16G24   29.45F
RIFLE, CO      PTCLDY    50  19  29 SW24G32   29.45F
MONTROSE, CO   PTCLDY    49  16  26 S21G31    29.53F
CORTEZ, CO     PTCLDY    44  25  47 SW13      29.65F
COLORADO CITY  MOCLDY    46  28  49 SE6       29.63S
PAGE, AZ       PTCLDY    54  27  35 S13       29.56F
GRAND CANYON   MOCLDY    38  30  73 S18G31    29.71S WCI  28
KINGMAN, AZ    PTCLDY    55  33  43 S24G36    29.67S
FLAGSTAFF, AZ  MOCLDY    36  31  82 SW26G49   29.75F WCI  24

$$

REGIONAL REPORTS    NEVADA/IDAHO/WYOMING

CITY           SKY/WX    TMP DP  RH WIND       PRES   REMARKS
LAS VEGAS, NV  CLEAR     61  23  23 SW14G35   29.54R
ELY, NY        CLOUDY    28  14  55 W12G17    29.48F WCI  18
ELKO, NV       CLOUDY    27  19  72 CALM      29.53F
POCATELLO, ID  MOCLDY    28  20  71 SW15      29.54F WCI  16
BURLEY, ID     MOCLDY    23  18  81 SW8       29.55F WCI  14
EVANSTON, WY   LGT SNOW  21  19  92 NE7       29.47F VSB 3/4 WCI  12
ROCK SPRINGS,  LGT SNOW  23  19  85 N5        29.49F FOG     WCI  17

$$



USA.gov is the U.S. government's official web portal to all federal, state and local government web resources and services.